Find Starlink 2548

NORAD ID: 48285 Int'l Des: 2021-036 Owner: SPXS Country: US Constellation: starlink decayed
LEOCIRCULAR
Vis

Historical Track — 25. Mai 2024

3D-Globus wird geladen...

Über Starlink 2548

Beschreibung wird geladen...

Höhenverlauf

Loading altitude history...

Zweizeiliger Elementsatz

1 48285U 21036K 24145.91666667 .22111380 12070-4 42036-2 0 9991
2 48285 53.0382 101.4808 0004057 223.8003 355.1715 16.31198834170836
Epoch: 24. Mai 2024 • Age: 17083 hours

Aktueller Status

Position data unavailable
Startdatum 29. Apr. 2021
Alter 5 years
Verglühungsdatum 25. Mai 2024
Typ internet

Technische Details

Klassifizierung Payload
Masse 260.00 kg
Trockenmasse 248.00 kg
Gesamtmasse 260.00 kg
Länge 0.20 m
Durchmesser 2.80 m
Spannweite 9.00 m
Form Box + pan
Hersteller SPXS
Bus-Typ Starlink
Phasenstatus Unknown Transfer Status
Besitzer/Staat SPXS/US

Most Searched